Location: Cantaing
(50.1487°N, 3.1675°E)
Time: 06:59:15
(UTC+00:00)

SJ-12 - Pass Details

Date: 14 January 2026
Orbit: 515 x 525 km, 97.8° (Epoch: 10 February)

Event Time Altitude Azimuth Distance (km) Brightness Sun altitude
Rises 06:45:23 0° 12° (NNE) 2,676 7.2 -8.7°
Reaches altitude 10° 06:47:30 10° 11° (N) 1,780 6.3 -8.4°
Maximum altitude 06:51:20 74° 286° (WNW) 551 3.7 -7.9°
Drops below altitude 10° 06:55:07 10° 201° (SSW) 1,759 6.4 -7.3°
Sets 06:57:13 0° 200° (SSW) 2,640 7.4 -7.0°
